TimeCST,TemperatureF,Dew PointF,Humidity,Sea Level PressureIn,VisibilityMPH,Wind Direction,Wind SpeedMPH,Gust SpeedMPH,PrecipitationIn,Events,Conditions,WindDirDegrees,DateUTC
12:53 AM,18.0,14.0,84,30.30,10.0,Calm,Calm,-,N/A,,Clear,0,2013-12-27 06:53:00
1:53 AM,18.0,14.0,84,30.29,10.0,Calm,Calm,-,N/A,,Clear,0,2013-12-27 07:53:00
2:53 AM,16.0,12.9,88,30.28,10.0,Calm,Calm,-,N/A,,Clear,0,2013-12-27 08:53:00
3:53 AM,16.0,12.0,84,30.28,10.0,Calm,Calm,-,N/A,,Clear,0,2013-12-27 09:53:00
4:53 AM,19.9,18.0,92,30.27,10.0,Calm,Calm,-,N/A,,Clear,0,2013-12-27 10:53:00
5:53 AM,19.0,14.0,81,30.29,10.0,Calm,Calm,-,N/A,,Clear,0,2013-12-27 11:53:00
6:53 AM,18.0,15.1,88,30.29,10.0,Calm,Calm,-,N/A,,Clear,0,2013-12-27 12:53:00
7:53 AM,19.9,15.1,81,30.30,10.0,West,5.8,-,N/A,,Clear,280,2013-12-27 13:53:00
8:53 AM,21.9,17.1,82,30.31,10.0,West,3.5,-,N/A,,Clear,280,2013-12-27 14:53:00
9:53 AM,30.0,23.0,75,30.29,10.0,West,6.9,-,N/A,,Clear,280,2013-12-27 15:53:00
10:53 AM,37.0,25.0,62,30.28,10.0,WNW,6.9,-,N/A,,Clear,290,2013-12-27 16:53:00
11:53 AM,46.0,24.1,42,30.25,10.0,West,13.8,-,N/A,,Clear,270,2013-12-27 17:53:00
12:53 PM,50.0,25.0,38,30.22,10.0,West,11.5,-,N/A,,Clear,280,2013-12-27 18:53:00
1:53 PM,55.9,26.1,32,30.19,10.0,West,6.9,-,N/A,,Clear,270,2013-12-27 19:53:00
2:53 PM,57.9,25.0,28,30.17,10.0,WSW,9.2,-,N/A,,Clear,240,2013-12-27 20:53:00
3:53 PM,57.0,26.1,30,30.17,10.0,SW,8.1,-,N/A,,Clear,230,2013-12-27 21:53:00
4:53 PM,52.0,25.0,35,30.17,10.0,West,3.5,-,N/A,,Clear,260,2013-12-27 22:53:00
5:53 PM,43.0,24.1,47,30.18,10.0,NW,3.5,-,N/A,,Clear,310,2013-12-27 23:53:00
6:53 PM,33.1,21.9,64,30.19,10.0,Calm,Calm,-,N/A,,Clear,0,2013-12-28 00:53:00
7:53 PM,30.9,25.0,79,30.19,10.0,SW,3.5,-,N/A,,Clear,230,2013-12-28 01:53:00
8:53 PM,27.0,21.0,78,30.18,10.0,NNW,3.5,-,N/A,,Clear,330,2013-12-28 02:53:00
9:53 PM,28.0,21.9,78,30.15,10.0,Calm,Calm,-,N/A,,Clear,0,2013-12-28 03:53:00
10:53 PM,24.1,19.9,84,30.13,10.0,Calm,Calm,-,N/A,,Clear,0,2013-12-28 04:53:00
11:53 PM,25.0,21.0,85,30.08,10.0,Calm,Calm,-,N/A,,Clear,0,2013-12-28 05:53:00